Regional Weather Roundup
Issued by NWS

Home | Current Version | Previous Version | Text Only | Print | Product List | Glossary Off
Versions: 1 2 3 4 5 6 7 8 9 10 11 12 13 14 15 16 17 18 19 20 21 22 23 24 25 26 27 28 29 30 31 32 33 34 35 36 37 38 39 40 41 42 43 44 45 46 47 48 49 50

535
ASUS44 KJAN 290803
RWRMS

MISSISSIPPI HOURLY WEATHER ROUNDUP
NATIONAL WEATHER SERVICE JACKSON MS
300 AM CDT FRI AUG 29 2014

NOTE: "FAIR: INDICATES FEW OR NO CLOUDS BELOW 12,000 FEET WITH NO
SIGNIFICANT WEATHER AND/OR OBSTRUCTIONS TO VISIBILITY.

MSZ001>002-007>008-010>013-018>021-025>028-034>036-290900-
NORTHWEST MISSISSIPPI

CITY           SKY/WX    TMP DP  RH WIND       PRES   REMARKS
CLARKSDALE       N/A     72  66  83 CALM      29.96F
CLEVELAND      FAIR      73  70  91 CALM      29.94F
GREENWOOD      CLEAR     69  67  93 CALM      29.96S
GREENVILLE     CLEAR     72  70  93 SE6       29.94F
GRENADA        FAIR      68  66  94 CALM      29.97R
OLIVE BRANCH   CLEAR     72  72 100 CALM      29.97S
OXFORD         FAIR      68  64  88 CALM      29.99S
TUNICA         SUNNY     68  64  88 SW5       29.97S
$$

MSZ003>006-009-014>017-022>024-029>033-037>039-290900-
NORTHEAST MISSISSIPPI

CITY           SKY/WX    TMP DP  RH WIND       PRES   REMARKS
BELMONT        FAIR      68  67  97 CALM      29.99R
COLUMBUS AFB   CLEAR     69  64  83 S2        29.98S
CORINTH          N/A     68  66  94 CALM      29.97S FOG
GOLDN TRIANGLE CLEAR     73  64  73 S5        29.99S
STARKVILLE     FAIR      68  64  88 CALM      29.98S
TUPELO         CLEAR     70  67  90 CALM      29.97S
$$

MSZ040-058-290900-
CENTRAL MISSISSIPPI

CITY           SKY/WX    TMP DP  RH WIND       PRES   REMARKS
JACKSON INTL   MOCLDY    76  72  87 CALM      29.97S
JACKSON HAWKNS PTCLDY    77  71  82 CALM      29.97F
MERIDIAN KEY   MOCLDY    69  67  93 S3        29.99R
MERIDIAN NAS   PTCLDY    69  66  90 CALM      29.98F
RAYMOND        FAIR      72  66  83 CALM      29.97S HAZE
VICKSBURG      CLEAR     72  71  97 CALM      29.95F
$$

MSZ059>079-290900-
SOUTH MISSISSIPPI

CITY           SKY/WX    TMP DP  RH WIND       PRES   REMARKS
BROOKHAVEN     FAIR      73  72  94 CALM      29.99S
COLUMBIA       FAIR      72  70  94 CALM      29.96  FOG
HATTIESBURG    PTCLDY    73  70  90 CALM      29.98S
MCCOMB         MOCLDY    74  71  91 CALM      29.97F
NATCHEZ        CLEAR     75  72  88 CALM      29.97S
PINE BELT      PTCLDY   N/A N/A N/A CALM      29.99S
$$

MSZ080>082-290900-
COASTAL MISSISSIPPI

CITY           SKY/WX    TMP DP  RH WIND       PRES   REMARKS
BILOXI         PTCLDY    76  72  86 E5        29.95F
PASCAGOULA     PTCLDY    70  69  97 CALM      29.96F FOG
GULFPORT       CLEAR     76  72  87 CALM      29.95S
$$



USA.gov is the U.S. government's official web portal to all federal, state and local government web resources and services.